Temperature
19 18 18 18 18 18 18 18 18 18 18 18 18 18 18 18 18 18 18 18 18 18 17 17 17 17 17 17 17 17 17 17 17 17 17 16 16 16 16 16 16 16 16
18 18 18 18 18 18 18 18 18 18 18 18 18 18 18 18 18 18 18 18 18 18 18 17 17 17 17 17 17 17 17 17 17 17 17 16 16 16 16 16 16 16 16
18 18 18 18 18 18 18 18 18 18 18 18 18 18 18 18 18 18 18 18 18 18 17 17 17 17 17 17 17 17 17 17 17 17 17 16 16 16 16 16 16 16 16
18 18 18 18 18 18 18 18 18 18 18 18 18 18 18 18 18 18 18 18 18 17 17 17 17 17 17 17 17 17 17 17 17 16 16 16 16 16 16 16 16 16 16
18 18 18 18 18 18 19 18 18 18 18 18 18 18 18 18 18 18 18 18 18 17 17 17 17 17 17 17 17 17 17 16 16 16 16 16 16 16 16 16 16 16 16
18 18 18 18 18 18 18 18 18 18 18 18 18 18 18 18 18 18 18 18 18 17 17 17 17 17 17 17 17 17 17 16 16 16 16 16 16 16 16 16 16 16 16
19 19 19 19 18 18 18 18 18 18 18 18 18 18 18 18 18 18 18 18 18 17 17 17 17 17 17 17 17 17 17 16 16 16 16 16 16 16 16 16 16 16 16
19 19 19 19 19 19 18 18 18 18 18 18 18 18 18 18 18 18 18 18 18 18 17 17 17 17 17 17 17 17 17 17 16 16 16 16 16 16 16 16 15 16 16
19 18 18 19 19 19 19 19 18 18 18 18 18 18 18 18 18 18 18 18 18 18 18 17 17 17 17 17 17 17 17 17 16 16 16 16 16 16 16 16 16 15 15
19 19 19 19 18 18 18 18 18 18 18 18 18 18 18 18 18 17 18 18 18 18 17 17 17 17 17 17 17 17 17 17 16 16 16 16 16 16 16 16 15 15 15
18 18 18 18 18 18 18 18 18 18 18 18 18 18 18 18 18 17 17 17 17 17 17 17 17 17 17 17 17 17 17 17 17 16 16 16 16 16 16 16 15 15 15
19 18 18 18 18 18 18 18 18 18 18 18 18 18 18 18 18 17 17 17 17 17 17 17 17 17 17 17 17 17 17 16 16 16 16 16 16 16 16 16 15 15 15
19 19 18 18 18 18 18 18 18 18 18 18 18 18 18 18 18 17 17 17 17 17 17 17 17 17 17 17 17 17 17 17 16 16 16 16 16 16 16 16 15 15 15
19 18 18 18 18 18 18 18 18 18 18 18 18 18 18 18 17 17 17 17 17 16 17 17 17 17 17 16 16 16 16 16 16 16 16 16 16 16 15 15 15 15 15
18 18 18 18 18 18 18 18 18 18 18 18 18 18 18 17 17 17 17 17 16 16 16 16 16 17 16 16 16 16 16 16 16 16 16 16 15 15 15 15 15 15 15
18 18 18 18 18 18 18 18 18 18 18 18 18 17 17 17 17 17 17 17 16 16 16 16 16 16 16 16 16 16 16 16 16 16 15 15 15 15 15 15 15 14 14
18 18 18 18 18 18 18 18 18 18 18 18 17 17 17 17 17 17 17 16 16 16 16 16 16 16 16 16 16 15 15 15 15 15 15 15 15 15 14 14 14 14 14
18 18 18 18 18 18 18 18 18 17 17 17 17 17 17 17 17 17 16 16 16 16 16 15 16 16 15 15 15 15 15 15 15 15 15 15 14 14 14 14 14 14 14
18 18 18 18 18 18 18 17 17 17 17 17 17 17 17 17 17 16 16 16 16 16 15 15 15 15 15 15 15 15 15 15 14 14 14 14 14 14 14 14 14 14 14
18 18 18 18 18 17 17 17 17 17 17 17 17 17 17 16 16 16 16 16 16 15 15 15 15 15 15 15 15 15 14 14 14 14 14 14 14 14 13 13 14 13 13
18 18 18 18 17 17 17 17 17 17 17 17 17 17 16 16 16 16 16 16 15 15 15 15 15 14 14 14 14 14 14 14 14 13 13 13 13 13 13 13 13 13 13
18 18 17 17 17 17 17 17 17 17 17 17 16 16 16 16 16 16 15 15 15 15 15 15 14 14 14 14 14 14 13 13 13 13 13 13 13 13 13 13 13 13 12
17 17 17 17 17 17 17 17 16 16 16 16 16 16 16 16 15 15 15 15 15 15 14 14 14 14 14 14 13 13 13 13 13 13 13 13 13 13 13 12 12 12 12
17 17 17 17 17 17 17 16 16 16 16 16 16 16 15 15 15 15 15 15 14 14 14 14 14 14 13 13 13 13 13 13 13 12 12 12 12 12 12 12 12 12 12
17 17 17 17 17 16 16 16 16 16 16 15 15 15 15 15 15 14 14 14 14 14 14 14 13 13 13 13 13 13 13 12 12 12 12 12 12 12 12 12 12 12 12
17 17 17 17 16 16 16 16 15 15 15 15 15 15 15 15 14 14 14 14 14 14 14 13 13 13 13 13 12 12 12 12 12 11 11 11 11 11 11 11 11 11 11
Wind_Speed
2 2 2 2 2 2 2 2 1 1 1 1 2 2 2 3 3 3 3 6 7 8 8 9 9 9 9 8 8 8 8 7 7 7 7 7 7 7 7 7 7 8 8
2 1 1 1 1 1 2 1 1 1 0 1 1 2 2 2 2 2 3 5 7 7 8 8 9 9 8 8 8 7 7 8 7 7 8 8 8 8 8 8 8 9 9
2 1 1 0 0 1 1 2 1 1 1 1 1 1 1 2 2 2 2 3 4 6 7 8 8 8 8 8 8 8 7 8 8 8 8 8 8 8 8 8 9 9 9
3 2 1 0 1 2 2 1 1 1 1 1 1 0 1 1 1 2 2 2 3 3 5 7 8 9 9 10 9 9 9 8 8 8 8 8 8 8 9 9 9 8 8
3 2 1 1 1 1 1 1 1 1 1 1 1 0 1 1 2 2 2 3 3 3 4 6 7 8 9 9 9 9 9 9 8 8 9 9 9 9 10 10 10 10 9
2 2 1 0 1 1 1 1 1 1 1 1 1 0 1 1 2 2 3 2 3 4 4 5 5 6 7 8 8 8 8 9 9 9 10 10 10 10 10 10 11 11 11
2 2 1 0 1 1 1 2 2 2 1 1 1 1 1 1 1 2 2 2 3 3 4 4 5 4 5 7 8 8 8 8 10 10 11 10 11 11 11 10 11 12 12
2 2 2 1 1 2 2 2 2 1 1 1 2 1 2 2 2 1 1 2 3 2 3 4 4 4 5 5 6 8 8 9 9 10 11 10 10 11 11 10 11 11 11
1 1 1 1 1 2 2 2 2 2 2 1 1 2 1 1 1 2 1 1 1 1 2 3 4 5 5 5 5 7 8 8 9 9 9 8 7 7 8 9 9 8 8
1 1 1 1 1 1 2 2 2 2 3 2 1 1 1 2 1 1 2 1 1 1 2 2 3 3 4 4 5 6 7 8 8 8 7 7 6 6 6 7 8 8 8
2 1 1 1 1 1 1 1 2 2 2 2 2 1 1 1 1 1 2 2 2 1 1 2 3 3 3 4 4 5 6 6 6 6 6 5 5 6 6 7 7 7 7
1 1 1 1 1 1 1 1 1 2 2 2 2 2 2 2 2 2 2 2 2 2 2 1 2 2 3 3 3 4 4 4 4 4 5 5 5 5 6 6 7 7 6
1 1 0 1 1 1 1 1 2 1 1 2 2 1 1 2 2 2 2 2 2 2 2 1 2 2 3 2 3 4 4 4 5 5 5 5 5 5 5 5 5 6 6
2 1 1 1 1 1 1 1 1 1 1 1 1 1 1 1 2 2 3 2 2 2 2 3 1 2 2 2 4 4 3 4 5 4 4 5 5 5 5 5 5 5 5
1 1 1 1 1 1 1 2 1 1 1 1 1 1 1 1 1 2 2 3 3 3 3 3 2 1 2 2 3 3 2 3 3 4 4 5 5 4 4 4 5 5 5
2 2 2 1 1 1 1 1 1 1 1 1 1 1 1 2 1 1 2 2 3 4 4 3 3 2 2 3 3 3 3 3 3 3 3 4 4 4 4 4 5 5 5
2 3 3 2 2 2 2 1 2 1 2 2 2 2 2 2 1 2 2 2 2 3 4 3 2 2 2 3 3 3 3 2 2 3 3 3 4 5 5 4 4 5 5
2 3 2 2 2 2 2 2 2 2 2 3 3 2 3 2 2 2 2 2 2 3 3 4 3 2 3 3 2 2 2 2 2 3 3 3 4 4 5 5 4 5 5
3 2 2 3 3 3 2 3 3 3 3 3 3 3 4 3 3 2 3 3 2 2 3 3 3 2 2 2 2 2 2 2 2 3 3 3 4 4 4 4 4 4 4
3 3 3 3 3 3 3 2 2 3 3 3 3 4 4 4 4 3 3 3 3 2 2 3 3 2 2 2 1 2 2 2 2 2 2 3 3 4 5 5 4 3 4
4 3 2 2 2 2 2 2 2 3 3 3 3 4 4 4 4 4 3 3 3 2 2 3 3 2 2 2 2 2 3 3 2 2 2 2 2 2 3 4 4 4 4
3 2 3 3 3 3 3 3 3 3 3 3 4 4 4 4 4 4 4 4 4 4 3 3 3 4 4 3 3 3 3 2 3 1 1 3 2 3 3 3 4 5 6
3 3 4 3 4 4 4 4 4 3 3 3 3 3 3 3 2 3 3 3 4 4 5 4 4 5 4 4 3 3 3 3 4 2 1 3 3 3 3 4 5 6 6
3 3 3 3 3 4 3 3 3 3 3 3 3 4 4 3 3 2 2 2 3 4 4 4 5 5 5 4 4 4 4 3 3 2 1 3 3 3 4 4 4 6 6
2 2 2 2 2 4 3 3 3 2 3 4 4 3 3 3 3 2 2 3 4 4 3 3 4 4 4 3 3 2 2 2 3 3 2 2 3 3 3 3 3 4 6
2 2 2 2 3 4 3 3 3 3 3 4 3 3 3 3 3 2 2 3 4 4 3 2 2 2 2 2 3 4 4 3 2 3 2 2 2 2 2 2 3 3 3
Wind_Direction
96 85 71 74 82 89 100 100 96 89 98 113 133 147 152 147 162 181 193 203 203 205 205 203 199 200 204 205 208 209 212 216 217 217 217 220 220 223 229 230 231 231 228
111 95 76 62 71 97 99 105 126 130 129 119 134 137 150 150 166 184 200 209 210 211 212 215 211 212 215 215 216 219 222 226 223 225 228 227 227 230 233 235 236 237 235
138 125 108 75 318 95 96 92 76 77 85 98 103 135 156 167 176 192 206 211 217 223 222 225 226 222 224 226 227 226 229 233 231 235 236 234 233 235 237 240 241 243 241
160 149 143 211 167 117 124 126 99 79 71 107 115 155 183 180 195 195 206 219 221 231 231 232 232 232 231 233 232 229 228 229 232 237 241 241 240 239 239 239 241 243 244
165 157 153 176 140 121 138 150 117 131 125 127 145 174 210 208 219 212 217 229 230 233 234 235 235 237 237 237 238 236 232 231 234 239 243 243 243 242 242 240 241 241 241
166 148 151 156 128 115 121 132 130 108 133 147 102 21 299 252 229 226 228 225 227 233 239 240 239 245 243 241 245 247 246 240 237 240 244 246 246 246 245 244 243 242 238
170 155 179 156 138 152 172 152 145 120 87 119 97 9 339 296 234 241 231 224 234 241 245 245 243 243 248 247 248 251 252 252 248 246 249 251 250 250 249 249 249 244 239
170 169 172 169 159 156 152 153 154 142 108 111 135 108 352 350 350 283 230 227 243 239 245 251 248 240 239 247 253 255 255 256 258 255 253 254 253 251 250 253 252 246 242
169 165 158 153 154 163 175 182 167 162 175 125 133 145 151 251 316 343 343 284 253 227 248 259 255 248 239 243 257 263 260 253 256 258 260 258 257 256 251 252 250 244 241
81 133 131 135 133 137 162 187 173 165 163 176 141 141 170 169 181 327 347 356 332 288 281 274 271 263 246 243 251 258 262 258 255 258 260 261 258 261 260 257 254 247 242
25 60 91 103 110 120 130 141 133 150 166 172 172 160 161 136 172 189 286 324 347 324 292 280 277 279 267 256 257 263 263 263 253 252 253 257 260 260 262 262 263 257 250
1 15 74 87 84 99 119 131 126 133 152 153 160 160 166 177 193 187 228 274 301 308 306 290 278 276 286 282 271 266 256 266 262 258 258 259 261 262 262 261 262 261 256
296 293 113 126 127 128 118 113 118 127 153 150 173 190 194 209 192 181 190 242 276 297 298 285 273 285 292 299 293 284 262 265 268 266 264 265 263 262 259 259 260 259 256
236 242 184 169 164 155 141 122 131 166 145 161 189 191 206 228 202 197 190 196 254 288 294 279 287 297 303 306 300 286 275 268 271 265 259 257 259 257 253 250 248 250 255
225 206 187 185 203 182 171 149 156 187 152 182 216 208 225 245 218 215 207 204 207 247 273 266 262 284 293 289 300 288 284 291 277 256 251 249 255 254 254 247 246 248 250
211 190 196 198 200 193 179 170 188 200 181 228 224 215 240 247 239 222 212 216 216 219 248 260 253 274 294 305 308 289 286 294 287 266 248 248 252 256 255 252 249 247 245
209 209 212 210 208 209 197 186 211 210 209 236 238 226 251 251 246 247 229 219 220 212 235 269 271 277 276 294 314 313 306 300 300 279 260 251 252 253 250 251 249 244 241
214 215 214 216 223 223 213 204 223 228 223 235 246 243 256 253 250 251 237 232 228 218 220 255 276 281 266 276 288 291 310 306 302 286 269 263 258 255 250 252 248 240 236
225 220 214 222 232 233 230 225 224 233 238 243 248 247 252 248 257 251 238 237 236 232 224 238 265 268 268 285 296 294 298 310 305 285 263 265 258 250 250 255 253 243 235
220 224 229 234 238 235 231 227 224 235 244 255 257 252 249 241 245 241 237 233 226 230 240 247 262 270 272 277 263 287 303 303 293 306 304 288 269 253 254 256 255 249 240
225 219 225 238 242 234 231 221 233 239 243 258 266 258 250 241 239 234 232 221 212 221 237 248 258 267 268 277 269 267 275 293 285 284 303 300 296 286 283 262 248 249 245
224 218 225 231 240 243 234 215 211 235 240 244 258 265 263 260 255 244 237 227 214 215 227 237 248 250 256 254 259 255 269 281 284 287 281 284 281 276 284 270 252 245 239
215 221 232 227 238 249 243 228 212 218 233 243 247 255 263 273 267 262 255 243 240 229 215 218 236 247 251 244 240 253 252 255 258 262 257 269 272 278 283 275 257 245 236
216 220 231 234 239 254 243 229 223 225 239 247 244 241 247 264 263 251 260 269 270 262 242 231 234 242 247 237 225 236 248 262 279 255 230 256 272 281 290 286 270 256 247
224 230 234 232 249 268 254 230 202 230 246 257 256 251 247 256 264 236 224 253 273 280 277 257 251 255 255 245 217 208 219 233 268 256 233 253 271 282 281 277 285 275 264
226 234 253 246 243 262 267 240 207 225 247 263 270 265 253 251 246 209 213 235 259 273 279 295 314 313 290 252 219 214 213 223 252 264 234 232 257 279 284 278 286 296 288
Height
1526 1527 1528 1529 1530 1531 1532 1533 1534 1535 1536 1536 1537 1538 1539 1540 1540 1541 1542 1542 1543 1543 1544 1544 1545 1546 1547 1548 1549 1549 1550 1551 1552 1552 1553 1553 1554 1554 1555 1555 1556 1556 1557
1528 1529 1530 1530 1531 1532 1533 1533 1534 1535 1536 1536 1537 1538 1539 1540 1540 1541 1542 1542 1543 1543 1544 1544 1545 1545 1546 1547 1548 1549 1549 1550 1551 1551 1552 1552 1552 1552 1553 1554 1554 1554 1555
1530 1530 1531 1531 1532 1533 1533 1534 1535 1535 1536 1537 1538 1538 1539 1540 1540 1541 1542 1542 1542 1543 1543 1544 1544 1545 1545 1546 1547 1547 1548 1549 1549 1550 1550 1550 1550 1551 1551 1551 1552 1552 1552
1531 1531 1532 1532 1532 1533 1533 1534 1535 1535 1536 1537 1537 1538 1539 1539 1540 1540 1541 1541 1542 1543 1543 1543 1543 1544 1544 1545 1545 1546 1546 1547 1548 1547 1548 1548 1548 1548 1548 1549 1549 1549 1549
1532 1532 1532 1533 1533 1533 1533 1534 1535 1535 1536 1536 1537 1538 1538 1539 1539 1540 1540 1541 1541 1542 1542 1542 1542 1543 1543 1543 1543 1544 1544 1545 1545 1546 1546 1546 1546 1546 1546 1546 1546 1546 1546
1532 1533 1533 1533 1533 1533 1533 1534 1535 1535 1536 1536 1537 1537 1538 1538 1538 1539 1539 1540 1540 1541 1541 1541 1541 1541 1542 1542 1542 1542 1542 1543 1543 1544 1544 1543 1543 1543 1543 1543 1543 1543 1543
1533 1533 1533 1533 1533 1533 1533 1534 1534 1535 1535 1536 1537 1537 1537 1537 1537 1538 1538 1538 1539 1539 1540 1540 1540 1540 1540 1541 1541 1541 1541 1541 1541 1541 1541 1541 1541 1540 1540 1540 1540 1540 1540
1533 1533 1533 1533 1533 1532 1532 1533 1533 1534 1535 1535 1536 1536 1537 1538 1537 1537 1537 1537 1537 1538 1538 1538 1538 1539 1539 1539 1539 1539 1539 1539 1539 1539 1538 1538 1538 1537 1538 1537 1537 1537 1537
1533 1533 1533 1533 1532 1532 1532 1533 1533 1533 1534 1535 1536 1537 1536 1536 1536 1537 1536 1536 1536 1537 1537 1537 1537 1537 1537 1537 1537 1537 1537 1537 1536 1536 1536 1535 1535 1535 1534 1534 1534 1534 1534
1533 1533 1533 1533 1532 1532 1532 1532 1533 1533 1534 1534 1535 1535 1536 1536 1536 1535 1536 1536 1535 1535 1535 1535 1535 1535 1535 1535 1535 1535 1535 1534 1534 1534 1533 1533 1532 1532 1532 1531 1531 1531 1531
1533 1533 1533 1533 1532 1532 1532 1532 1533 1533 1533 1533 1534 1534 1534 1535 1535 1535 1534 1534 1534 1534 1534 1534 1533 1533 1533 1533 1532 1532 1532 1532 1531 1531 1531 1530 1530 1529 1529 1529 1528 1528 1528
1532 1533 1533 1532 1532 1532 1532 1532 1532 1532 1532 1533 1533 1533 1533 1533 1533 1533 1533 1532 1532 1532 1532 1532 1531 1531 1531 1530 1530 1530 1529 1529 1529 1528 1528 1528 1527 1527 1526 1526 1525 1525 1525
1532 1532 1532 1532 1532 1532 1532 1532 1532 1532 1532 1532 1532 1532 1532 1532 1532 1532 1531 1531 1530 1530 1530 1529 1529 1529 1529 1528 1527 1527 1527 1526 1526 1525 1525 1525 1524 1524 1523 1523 1522 1522 1522
1531 1532 1532 1532 1531 1532 1531 1531 1531 1531 1531 1531 1531 1531 1531 1530 1530 1530 1530 1530 1528 1528 1527 1527 1526 1526 1526 1525 1525 1524 1524 1523 1523 1522 1522 1521 1521 1521 1520 1520 1519 1519 1518
1530 1531 1531 1531 1530 1530 1530 1530 1530 1530 1530 1529 1529 1529 1529 1529 1528 1528 1528 1528 1528 1525 1524 1524 1524 1524 1523 1523 1522 1521 1521 1520 1520 1519 1519 1518 1518 1517 1517 1516 1516 1515 1515
1529 1529 1529 1529 1529 1529 1529 1528 1528 1528 1528 1528 1528 1527 1527 1527 1526 1526 1525 1525 1524 1524 1522 1521 1521 1521 1520 1520 1519 1518 1518 1517 1517 1516 1516 1515 1515 1514 1514 1513 1513 1512 1511
1527 1527 1527 1527 1527 1527 1527 1527 1526 1526 1526 1526 1526 1525 1525 1525 1524 1523 1523 1522 1522 1521 1519 1518 1518 1518 1517 1516 1515 1515 1514 1514 1513 1513 1512 1512 1511 1511 1510 1510 1509 1509 1508
1525 1525 1525 1525 1525 1525 1525 1525 1524 1524 1524 1523 1523 1523 1522 1522 1521 1521 1520 1520 1519 1518 1517 1515 1515 1514 1514 1513 1512 1511 1511 1510 1509 1509 1509 1508 1508 1507 1507 1507 1506 1505 1505
1523 1523 1523 1523 1523 1523 1523 1522 1522 1522 1521 1521 1521 1520 1520 1520 1519 1518 1517 1516 1516 1515 1514 1513 1511 1511 1510 1509 1509 1508 1507 1507 1506 1505 1505 1505 1504 1504 1503 1503 1502 1502 1501
1520 1520 1520 1520 1520 1520 1520 1520 1519 1519 1518 1518 1518 1518 1517 1517 1516 1515 1514 1513 1512 1512 1511 1509 1508 1507 1506 1506 1505 1504 1503 1503 1502 1502 1501 1501 1501 1500 1500 1499 1499 1498 1498
1517 1517 1517 1517 1517 1517 1517 1516 1516 1516 1515 1515 1514 1514 1514 1513 1512 1512 1511 1510 1509 1508 1507 1506 1504 1504 1503 1502 1501 1500 1499 1499 1498 1498 1497 1497 1497 1496 1496 1495 1495 1494 1494
1513 1514 1514 1514 1514 1514 1514 1513 1513 1512 1512 1511 1511 1510 1510 1509 1509 1508 1507 1506 1506 1504 1503 1502 1501 1500 1499 1498 1498 1497 1496 1495 1494 1495 1494 1494 1494 1493 1492 1492 1492 1491 1491
1510 1510 1510 1510 1510 1510 1510 1510 1510 1509 1508 1507 1507 1506 1506 1505 1505 1504 1503 1502 1501 1500 1499 1499 1497 1496 1495 1494 1494 1493 1493 1492 1491 1491 1490 1489 1490 1489 1489 1488 1488 1488 1487
1506 1506 1506 1507 1507 1507 1507 1506 1506 1505 1504 1503 1503 1502 1502 1501 1500 1500 1499 1498 1497 1496 1495 1494 1493 1492 1492 1491 1490 1490 1489 1489 1488 1488 1487 1486 1486 1486 1485 1485 1484 1484 1483
1503 1503 1503 1502 1502 1502 1502 1502 1502 1501 1500 1499 1499 1498 1497 1497 1496 1496 1495 1494 1493 1492 1491 1490 1489 1489 1488 1487 1487 1486 1486 1485 1484 1484 1484 1483 1482 1482 1482 1481 1481 1481 1480
1499 1499 1499 1499 1499 1499 1498 1498 1498 1496 1495 1494 1494 1493 1493 1492 1492 1491 1490 1489 1488 1487 1486 1485 1485 1485 1484 1484 1483 1483 1482 1481 1480 1480 1479 1480 1479 1479 1478 1477 1477 1477 1476